Location: Azul
(36.7830°S, 59.8500°W)
Time: 09:38:56
(UTC-03:00)

ISS - Pass Details

Date: 29 March 2020
Orbit: 416 x 423 km, 51.6° (Epoch: 02 April)

Event Time Altitude Azimuth Distance (km) Brightness Sun altitude
Exits shadow 05:00:13 20° 150° (SSE) 1,074 -1.3 -26.7°
Drops below altitude 10° 05:01:27 10° 142° (SE) 1,538 -0.2 -26.4°
Sets 05:03:38 0° 135° (SE) 2,410 1.0 -26.0°
